Regional Weather Roundup
Issued by NWS

Home | Current Version | Previous Version | Graphics & Text | Print | Product List | Glossary On
Versions: 1 2 3 4 5 6 7 8 9 10 11 12 13 14 15 16 17 18 19 20 21 22 23 24 25 26 27 28 29 30 31 32 33 34 35 36 37 38 39 40 41 42 43 44 45 46 47 48 49 50
386
ASUS43 KMKX 201611
RWRWI

WISCONSIN REGIONAL WEATHER ROUNDUP
NATIONAL WEATHER SERVICE MILWAUKEE/SULLIVAN WI
1100 AM CDT WED SEP 20 2017

NOTE: "FAIR" INDICATES FEW OR NO CLOUDS BELOW 12,000 FEET WITH NO
SIGNIFICANT WEATHER AND/OR OBSTRUCTIONS TO VISIBILITY.

WIZ001-002-006>008-014>016-023>028-201700-
NORTHWEST WISCONSIN

CITY           SKY/WX    TMP DP  RH WIND       PRES   REMARKS
SUPERIOR ARPT  CLOUDY    70  66  87 SW10G20   29.66R
ASHLAND        CLOUDY    70  64  81 S13G24    29.69R
HAYWARD        CLOUDY    68  64  87 S8        29.72R
SIREN          CLOUDY    70  63  78 W15G25    29.71R
CUMBERLAND     CLOUDY    70  64  83 S10       29.72R
RICE LAKE      CLOUDY    70  65  84 S8        29.74R
CHETEK         CLOUDY    71  67  87 S6        29.73R
LADYSMITH      CLOUDY    69  65  87 SE9       29.76F
EAU CLAIRE     PTSUNNY   75  67  76 S12       29.72S
MENOMONIE      CLOUDY    75  68  78 S8        29.72S
NEW RICHMOND   CLOUDY    70  62  76 W9        29.74R
OSCEOLA        CLOUDY    69  62  77 W12       29.76R
$$

WIZ003>005-009-010-017-018-201700-
NORTH CENTRAL WISCONSIN

CITY           SKY/WX    TMP DP  RH WIND       PRES   REMARKS
MANITOWISH WTR CLOUDY    64  64 100 SE13G20   29.80R
ARBOR VITAE    CLOUDY    64  62  91 S15G21    29.81S
WOODRUFF       CLOUDY    64  62  91 S15G21    29.81S
RHINELANDER    CLOUDY    64  63  96 SE14G22   29.84S
EAGLE RIVER    CLOUDY    64  63  96 S12G18    29.82S
LAND O LAKES   CLOUDY    66  62  86 S10G21    29.84R
PHILLIPS       CLOUDY    64  64  99 S9        29.78R
TOMAHAWK         N/A     63  61  95 SE3       29.83R FOG
MEDFORD        CLOUDY    65  63  92 SE10G18   29.80S FOG
MERRILL        CLOUDY    64  64 100 S9G16     29.83S FOG
$$

WIZ029-030-035-036-043>047-201700-
CENTRAL WISCONSIN

CITY           SKY/WX    TMP DP  RH WIND       PRES   REMARKS
WAUSAU         CLOUDY    66  64  93 SE9       29.82R
MOSINEE        CLOUDY    66  64  94 SE13      29.84S FOG
MARSHFIELD     CLOUDY    71  63  75 S9G18     29.80R
STEVENS POINT  CLOUDY    69  67  91 SE9       29.83S
WAUPACA        PTSUNNY   74  67  78 SE9       29.84F
WAUTOMA        CLOUDY    73  68  84 SE7       29.83F
WISC RAPIDS    CLOUDY    73  65  75 SE12      29.81F
CAMP DOUGLAS   PTSUNNY   77  68  73 SE7       29.78F
$$

WIZ011>013-019>022-031-037>040-048>050-201700-
NORTHEAST WISCONSIN

CITY           SKY/WX    TMP DP  RH WIND       PRES   REMARKS
ANTIGO         CLOUDY    62  62 100 SE17      29.86F FOG
SHAWANO        TSTM      68  65  88 E12       29.89S
OCONTO         CLOUDY    68  64  88 SE7       29.92R
STURGEON BAY   CLOUDY    68  65  90 S18G24    29.92S FOG
GREEN BAY      CLOUDY    74  67  78 S20       29.89R
MANITOWOC      CLOUDY    69  66  90 SE14G20   29.93R FOG
APPLETON       PTSUNNY   72  64  78 SE16G23   29.87S
CLINTONVILLE   CLOUDY    68  64  88 E9        29.86F
OSHKOSH        CLOUDY    76  66  71 S16G25    29.86S
$$

WIZ032>034-041-042-053>061-201700-
SOUTHWEST WISCONSIN

CITY           SKY/WX    TMP DP  RH WIND       PRES   REMARKS
LA CROSSE      SUNNY     81  68  64 S14G24    29.73S HX  84
SPARTA         SUNNY     77  67  71 S13G20    29.77R
VIROQUA        MOSUNNY   77  69  75 S10       29.79S
BOSCOBEL       SUNNY     81  67  62 S10G20    29.78F HX  83
PRAIRIE DU CHI SUNNY     81  65  59 S7        29.76F HX  82
PLATTEVILLE    SUNNY     79  70  74 S13       29.83F HX  81
$$

WIZ056-057-062-063-064-067-068-201700-
SOUTH CENTRAL WISCONSIN

CITY           SKY/WX    TMP DP  RH WIND       PRES   REMARKS
REEDSBURG      CLOUDY    77  68  73 S12       29.81S
BARABOO/DELLS  CLOUDY    76  65  67 S13G21    29.82S
LONE ROCK      MOSUNNY   80  69  69 S14       29.80F HX  83
MINERAL POINT  SUNNY     81  70  69 S15       29.83S HX  84
MADISON        PTSUNNY   79  67  66 S15       29.84S HX  81
MIDDLETON      MOSUNNY   80  67  65 S10       29.84S HX  82
WATERTOWN      SUNNY     79  69  70 SE15      29.86F HX  81
MONROE         SUNNY     81  66  61 S15       29.84F HX  83
JANESVILLE     PTSUNNY   82  66  57 S12       29.86F HX  85
$$

WIZ051-052-058>065-066-070>072-201700-
SOUTHEAST WISCONSIN

CITY           SKY/WX    TMP DP  RH WIND       PRES   REMARKS
MILWAUKEE      MOSUNNY   75  68  78 SE12      29.91R
WAUKESHA       MOSUNNY   75  66  73 SE12      29.92R
MILWAUKEE/TIMM MOSUNNY   73  64  73 SE21      29.92R
RACINE         CLOUDY    74  68  81 SE13      29.94R
BURLINGTON     SUNNY     80  68  67 SE8       29.90S HX  82
KENOSHA        PTSUNNY   78  67  68 SE12      29.92R HX  80
FOND DU LAC    SUNNY     76  64  66 SE18G24   29.87R
SHEBOYGAN      CLOUDY    72  68  87 S15G23    29.92R
WEST BEND        N/A     73  68  83 SE10      29.91S
JUNEAU         SUNNY     76  67  73 SE16      29.88F
$$

LSZ147-162-201700-
LAKE SUPERIOR

STATION/POSITION TIME  TEMP    WIND        PRES    WAVE
                       AIR SEA DIR/SP/G            HT/PER
                 (UTC) (F)     (DEG/KT/KT) (MB)    (FT/S)
W MID LAKE BUOY  1550   59 54  120/ 12/ 14 1005.2F   3/ 4
DEVILS ISLAND    1600   69     160/  5/ 11 1004.5S
PORT WING        1340   65     140/  6/ 14 1004.7
SAXON HARBOR     1530   71     190/  8/ 17 1004.7S
$$

LMZ867-665-643>646-201700-
LAKE MICHIGAN

STATION/POSITION TIME  TEMP    WIND        PRES    WAVE
                       AIR SEA DIR/SP/G            HT/PER
                 (UTC) (F)     (DEG/KT/KT) (MB)    (FT/S)
S GREEN BAY BUOY 1600   68 66  160/ 12/ 16 1012.6
N MID LAKE BUOY  1550   65 64  140/ 10/ 12 1013.8F   2/ 4
NORTHPORT PIER   1540   65     150/ 10/ 18 1013.5S
KEWAUNEE LAKESHO 1548   62     160/  9/ 11 1013.0R
SHEBOYGAN LAKESH 1600   66     160/ 14/ 15 1013.0R
PORT WASHINGTON  1530   69     160/ 13/ 16 1013.9R
ATWATER BUOY     1509   68 68  150/ 16/ 19 1013.2R
MILWAUKEE LAKESH 1530   67     160/ 11/ 12   N/A
S MID LAKE BUOY  1550   67 68  100/ 16/ 17 1013.4F   2/ 4
KENOSHA   LAKESH 1600   70     160/ 11/ 13 1013.2
$$

TC  - TEMPERATURE IN CELSIUS
VSB - VISIBILITY IN STATUTE MILES
WCI - WIND CHILL INDEX
HX  - HEAT INDEX





USA.gov is the U.S. government's official web portal to all federal, state and local government web resources and services.